[[{"header":{"parameterUnit":"m.s-1","parameterCategory":1,"la1":30.2991,"la2":30.254,"lo1":-89.0895,"lo2":-89.0444,"dy":0.0017,"dx":0.0017,"nx":28,"ny":28,"refTime":"2024-05-25T03:00:00:Z","depth":0,"parameterNumber":2,"parameterNumberName":"U-component_of_WINDS"},"data":[0,0,0,0,0,0,0,0,0,0,0,0,0,0,0,0,0,0,0,0,0,0,0,0,0,0,0,0,0,0,0,0,0,0,0,0,0,0,0,0,0,0,0,0,0,0,0,0,0,0,0,0,0,0,0,0,0,0,0.5532,0.5532,0,0.5497,0.5497,0.5497,0.5481,0.5481,0.5481,0.5481,0.5444,0.5443,0.5442,0,0,0,0,0,0,0,0,0,0,0,0,0,0.5583,0.5582,0.5532,0.5532,0.5531,0.5497,0.5497,0.5496,0.5481,0.5481,0.5481,0.5481,0.5444,0.5443,0.5441,0,0,0,0,0,0,0,0,0,0,0,0,0,0.5555,0.5581,0.5532,0.5519,0.5518,0.5497,0.5497,0.5496,0.5481,0.5481,0.5481,0.5481,0.5444,0.5443,0.5441,0.543,0,0,0.5436,0.5436,0,0,0,0,0,0,0,0,0.5557,0.5554,0.5522,0.552,0.5519,0.5494,0.5501,0.5474,0.5481,0.5495,0.5481,0.5481,0.546,0.5457,0.545,0.5428,0.5427,0.5436,0.5435,0.5435,0.5434,0,0,0,0,0,0,0,0.5559,0.5555,0.5518,0.5521,0.5519,0.5515,0.5511,0.5496,0.5477,0.5494,0.5493,0.5489,0.5459,0.5452,0.5449,0.5426,0.5436,0.5435,0.5434,0.5433,0.5393,0.5392,0,0,0,0,0,0,0.5563,0.5557,0.5519,0.5517,0.5538,0.5514,0.551,0.5502,0.5478,0.5474,0.5489,0.5488,0.5455,0.5451,0.5448,0.5433,0.5435,0.5433,0.5432,0.5393,0.5393,0.5392,0,0,0,0,0,0,0.5564,0.556,0.5521,0.5537,0.5531,0.5513,0.5504,0.5501,0.5494,0.5474,0.547,0.5485,0.5455,0.545,0.5435,0.5432,0.5432,0.5431,0.5393,0.5393,0.5392,0.5403,0,0,0,0,0,0,0.5566,0.5561,0.5557,0.5537,0.553,0.5509,0.5504,0.55,0.5491,0.549,0.5469,0.5466,0.5454,0.5437,0.5433,0.5429,0.543,0.5393,0.5393,0.5393,0.5403,0.5404,0.5404,0,0,0,0,0,0.5568,0.556,0.5556,0.5552,0.5525,0.5508,0.5505,0.5492,0.5491,0.5487,0.5474,0.5467,0.5433,0.5436,0.5431,0.5427,0.5393,0.5393,0.5393,0.5403,0.5404,0.5404,0,0,0,0,0,0,0.558,0.5558,0.5553,0.5539,0.5526,0.5506,0.55,0.5493,0.5479,0.5479,0.5463,0.5459,0.5444,0.5434,0.5438,0.5415,0.5412,0.5411,0.5422,0.5422,0.5422,0.5425,0.5428,0,0,0,0,0,0.5581,0.557,0.5551,0.5541,0.5534,0.5518,0.551,0.5502,0.5487,0.5481,0.5467,0.5453,0.5439,0.543,0.5416,0.5402,0.5397,0.5397,0.5397,0.5397,0.5396,0.5388,0.5387,0.5391,0.5391,0.5391,0,0,0.5583,0.5569,0.5563,0.5543,0.5531,0.552,0.5514,0.5501,0.5492,0.5479,0.5464,0.5453,0.5436,0.5421,0.5414,0.5412,0.5394,0.5397,0.5397,0.5396,0.5387,0.5387,0.5387,0.5391,0.5391,0.5391,0,0,0.558,0.557,0.556,0.5549,0.5532,0.5522,0.5519,0.55,0.5493,0.5477,0.5468,0.5456,0.5432,0.542,0.5411,0.5405,0.5397,0.5401,0.5402,0.5394,0.5394,0.5393,0.5391,0.539,0.54,0.54,0.54,0,0.5585,0.5567,0.5555,0.5544,0.5535,0.5523,0.5513,0.5503,0.5482,0.5476,0.5474,0.5444,0.5432,0.5414,0.5412,0.5405,0.5402,0.5403,0.5395,0.5394,0.5394,0.5391,0.539,0.54,0.54,0.54,0.54,0,0.5574,0.5562,0.5556,0.5537,0.5527,0.5516,0.5502,0.5493,0.5486,0.5475,0.5459,0.5444,0.5427,0.5422,0.5414,0.5403,0.5402,0.5398,0.5395,0.5394,0.5391,0.539,0.5401,0.5401,0.5401,0.54,0,0,0.5577,0.5552,0.555,0.5542,0.5523,0.5513,0.5501,0.5485,0.5478,0.5464,0.5453,0.5434,0.543,0.542,0.541,0.5403,0.5399,0.54,0.5399,0.54,0.5385,0.5388,0.5387,0.5394,0.5394,0.5394,0.5386,0,0.5572,0.5552,0.5541,0.5524,0.5513,0.5502,0.5492,0.5479,0.5469,0.5457,0.5445,0.5432,0.5428,0.5421,0.5414,0.5401,0.5396,0.5401,0.5383,0.5383,0.5388,0.5386,0.5389,0.5383,0.5385,0.5385,0.5385,0,0.5563,0.5551,0.5534,0.5516,0.5511,0.5502,0.5486,0.5475,0.546,0.5453,0.5442,0.5433,0.5419,0.5418,0.5399,0.5403,0.5395,0.5388,0.5387,0.5385,0.5384,0.5383,0.5381,0.538,0.5383,0.5383,0.5383,0,0.5568,0.5546,0.5533,0.5526,0.5505,0.5499,0.549,0.5475,0.5466,0.5452,0.5446,0.543,0.5422,0.541,0.5396,0.5397,0.5379,0.5376,0.5372,0.5372,0.5368,0.5369,0.5364,0.5364,0.5364,0.5364,0.5364,0,0.5563,0.5553,0.5535,0.5527,0.5515,0.5502,0.5491,0.548,0.5467,0.5456,0.5446,0.5436,0.5419,0.5407,0.5396,0.5382,0.5378,0.5372,0.5369,0.5373,0.5373,0.5367,0.5367,0.5363,0.5364,0.5364,0.5364,0,0.5565,0.5553,0.5538,0.552,0.5515,0.5507,0.5491,0.5483,0.5472,0.5459,0.5455,0.5438,0.5423,0.5409,0.5389,0.5382,0.5367,0.5364,0.5373,0.5371,0.5368,0.5368,0.5359,0.5357,0.5358,0.5358,0.5358,0,0.5563,0.5555,0.5536,0.5529,0.552,0.5508,0.5499,0.5486,0.5477,0.5459,0.5452,0.5437,0.5424,0.54,0.5386,0.537,0.5366,0.5364,0.5364,0.5368,0.5366,0.5366,0.5365,0.5364,0.5364,0.5364,0.5365,0,0.556,0.5554,0.5542,0.5528,0.5518,0.5506,0.5494,0.5488,0.5472,0.5462,0.5448,0.5437,0.5417,0.5402,0.5385,0.5374,0.5367,0.5365,0.5363,0.5366,0.5372,0.5368,0.5373,0.5365,0.5365,0.5365,0.5365,0.5365,0.556,0.5552,0.5538,0.5525,0.5514,0.5503,0.5494,0.5483,0.5471,0.5454,0.5446,0.5431,0.5416,0.5392,0.5382,0.5369,0.5368,0.5365,0.5364,0.5364,0.5364,0.5374,0.5366,0.5366,0.5366,0.5366,0.5366,0,0.5556,0.5546,0.5535,0.5518,0.5508,0.5502,0.5488,0.5479,0.5467,0.5453,0.5441,0.5424,0.5409,0.5393,0.5377,0.537,0.5366,0.5366,0.5366,0.5364,0.5367,0.537,0.537,0.537,0.537,0.537,0.537,0.537,0.5553,0.554,0.5533,0.5514,0.5504,0.549,0.5482,0.5472,0.5461,0.5443,0.543,0.5421,0.5406,0.5389,0.5375,0.5371,0.5365,0.5367,0.5361,0.5364,0.5364,0.5364,0.5367,0.5366,0.5366,0.5359,0.5359,0.5359]},{"header":{"parameterUnit":"m.s-1","parameterCategory":1,"la1":30.2991,"la2":30.254,"lo1":-89.0895,"lo2":-89.0444,"dy":0.0017,"dx":0.0017,"nx":28,"ny":28,"refTime":"2024-05-25T03:00:00:Z","depth":0,"parameterNumber":3,"parameterNumberName":"V-component_of_WINDS"},"data":[0,0,0,0,0,0,0,0,0,0,0,0,0,0,0,0,0,0,0,0,0,0,0,0,0,0,0,0,0,0,0,0,0,0,0,0,0,0,0,0,0,0,0,0,0,0,0,0,0,0,0,0,0,0,0,0,0,0,4.3632,4.363,0,4.3461,4.3459,4.3457,4.335,4.3349,4.3349,4.3348,4.317,4.3166,4.3162,0,0,0,0,0,0,0,0,0,0,0,0,0,4.3865,4.3861,4.3632,4.363,4.3628,4.3462,4.3459,4.3457,4.335,4.3349,4.3348,4.3348,4.3171,4.3166,4.3161,0,0,0,0,0,0,0,0,0,0,0,0,0,4.3736,4.386,4.3633,4.3555,4.3546,4.3462,4.3459,4.3456,4.335,4.3349,4.3348,4.3347,4.3173,4.3167,4.3161,4.314,0,0,4.3141,4.3139,0,0,0,0,0,0,0,0,4.3743,4.3727,4.3568,4.356,4.355,4.3426,4.3476,4.335,4.335,4.3424,4.3348,4.3347,4.3256,4.3242,4.3212,4.3131,4.3124,4.3141,4.3137,4.3134,4.3133,0,0,0,0,0,0,0,4.3752,4.3734,4.3564,4.3566,4.3555,4.3528,4.3509,4.3452,4.3347,4.3418,4.341,4.3391,4.325,4.3219,4.3207,4.3121,4.3141,4.3135,4.3132,4.3129,4.3019,4.302,0,0,0,0,0,0,4.3774,4.3742,4.357,4.3559,4.3647,4.3525,4.3503,4.3467,4.3347,4.3328,4.3392,4.3387,4.323,4.3215,4.3201,4.317,4.3134,4.3128,4.3125,4.3018,4.3019,4.302,0,0,0,0,0,0,4.3779,4.376,4.3577,4.3649,4.3623,4.3521,4.3482,4.3464,4.3432,4.3328,4.3308,4.3379,4.3228,4.3209,4.3157,4.3162,4.3126,4.312,4.3017,4.3018,4.3019,4.3109,0,0,0,0,0,0,4.3787,4.3762,4.3753,4.3649,4.362,4.3536,4.3482,4.3461,4.3422,4.3413,4.331,4.3292,4.3226,4.3167,4.3151,4.3153,4.3115,4.3016,4.3018,4.3019,4.3105,4.3113,4.312,0,0,0,0,0,4.3795,4.3783,4.3753,4.3733,4.3606,4.3536,4.3519,4.3445,4.3423,4.3413,4.3347,4.3296,4.3165,4.3162,4.3143,4.3144,4.3015,4.3017,4.3019,4.3101,4.3111,4.312,0,0,0,0,0,0,4.3888,4.3768,4.3733,4.3688,4.3624,4.3518,4.3503,4.3457,4.3396,4.3391,4.33,4.3278,4.3235,4.3184,4.3183,4.312,4.3084,4.3083,4.3154,4.3162,4.317,4.3182,4.311,0,0,0,0,0,4.3904,4.3857,4.3755,4.3725,4.3695,4.3605,4.3572,4.352,4.3449,4.3421,4.3351,4.3284,4.3228,4.3192,4.3135,4.3098,4.3075,4.309,4.3097,4.3104,4.3103,4.3082,4.3088,4.3026,4.3026,4.3026,0,0,4.3934,4.3863,4.3839,4.3742,4.3686,4.364,4.3583,4.3536,4.3501,4.3413,4.336,4.3307,4.3226,4.3183,4.3159,4.3139,4.3116,4.3106,4.3113,4.3107,4.3085,4.3091,4.3096,4.3027,4.3027,4.3027,0,0,4.3966,4.3908,4.3877,4.3824,4.3741,4.3683,4.3676,4.3579,4.3541,4.3487,4.3421,4.3379,4.3284,4.323,4.319,4.3209,4.316,4.3193,4.3231,4.3212,4.3217,4.3221,4.3229,4.3233,4.3192,4.3193,4.3193,0,4.4014,4.3943,4.3867,4.3826,4.3785,4.3708,4.3677,4.3628,4.353,4.3505,4.3484,4.3366,4.3305,4.3249,4.3255,4.3225,4.3215,4.3202,4.3223,4.3226,4.3229,4.3235,4.3238,4.3197,4.3197,4.3196,4.3196,0,4.4007,4.3959,4.3945,4.3856,4.3814,4.3778,4.3697,4.3664,4.3618,4.3562,4.351,4.3436,4.3364,4.3347,4.33,4.3285,4.3275,4.324,4.3203,4.324,4.3245,4.3247,4.3204,4.3202,4.3201,4.3199,0,0,4.4088,4.3962,4.3957,4.3917,4.3823,4.3785,4.3747,4.3678,4.3652,4.3589,4.3555,4.348,4.3448,4.3403,4.335,4.3334,4.3356,4.3301,4.3297,4.3314,4.3337,4.3364,4.3368,4.3324,4.3325,4.3325,4.3344,0,4.4106,4.4034,4.3967,4.392,4.3876,4.3804,4.3771,4.371,4.3658,4.3614,4.3556,4.3504,4.3466,4.3439,4.342,4.3357,4.3359,4.3355,4.3292,4.3291,4.3314,4.337,4.3397,4.3419,4.3346,4.3346,4.3346,0,4.4116,4.406,4.4009,4.3923,4.3902,4.3873,4.3807,4.3765,4.3696,4.366,4.3613,4.3559,4.3516,4.3486,4.3427,4.3426,4.3397,4.3363,4.3362,4.3352,4.332,4.3362,4.3424,4.3427,4.3348,4.3348,4.3347,0,4.4182,4.4093,4.4051,4.4019,4.3918,4.39,4.3856,4.3786,4.3751,4.3694,4.367,4.3608,4.3574,4.3528,4.3459,4.3443,4.3408,4.3372,4.3377,4.3379,4.3371,4.3372,4.343,4.3354,4.3354,4.3354,4.3354,0,4.4209,4.418,4.408,4.4054,4.4021,4.3946,4.3915,4.3865,4.3805,4.3769,4.3703,4.3671,4.3582,4.354,4.3486,4.3447,4.3432,4.3402,4.3388,4.3407,4.3411,4.3386,4.3382,4.3355,4.3355,4.3355,4.3355,0,4.4275,4.4206,4.4157,4.4067,4.4043,4.4023,4.3946,4.3919,4.3866,4.3821,4.3807,4.3723,4.367,4.3598,4.3522,4.3486,4.3454,4.3432,4.3478,4.3469,4.348,4.348,4.3521,4.3524,4.3448,4.3449,4.345,0,4.4296,4.4273,4.4182,4.4154,4.4114,4.4069,4.4034,4.396,4.3926,4.3848,4.3831,4.3774,4.3724,4.3644,4.3576,4.3519,4.3495,4.3514,4.3485,4.3507,4.3496,4.3498,4.3496,4.352,4.3521,4.3522,4.3523,0,4.434,4.4309,4.4261,4.4203,4.4164,4.4113,4.406,4.4041,4.3956,4.3922,4.3868,4.383,4.3755,4.37,4.3635,4.359,4.3543,4.3533,4.3531,4.355,4.3578,4.3564,4.3496,4.3531,4.3531,4.353,4.3529,4.3529,4.4384,4.4361,4.4295,4.4245,4.4199,4.4152,4.4123,4.4068,4.4023,4.3957,4.3917,4.3866,4.3801,4.3709,4.3668,4.3627,4.3608,4.3605,4.3604,4.3605,4.3612,4.3587,4.3615,4.3615,4.3614,4.3614,4.3614,0,4.4425,4.4381,4.4336,4.4266,4.4227,4.4189,4.4129,4.41,4.4056,4.4,4.3954,4.3895,4.3842,4.3773,4.3716,4.3697,4.3674,4.3685,4.3684,4.3676,4.3632,4.3639,4.3704,4.3704,4.3704,4.3704,4.3704,4.3704,4.4442,4.4403,4.4365,4.4303,4.4258,4.4209,4.4179,4.4136,4.4092,4.4029,4.3986,4.3942,4.3881,4.382,4.3771,4.3752,4.3734,4.3752,4.3726,4.3686,4.3678,4.367,4.3677,4.3748,4.3748,4.3773,4.3773,4.3773]}]]